Location: Campavaglio
(41.1333°N, 9.2333°E)
Time: 00:23:51
(UTC+00:00)

Daily predictions for brighter satellites

Satellite Brightness Start Highest point End
(mag) Time Altitude Azimuth Time Altitude Azimuth Time Altitude Azimuth
STARLINK-1303 4.5 00:05:53 43° NE 00:05:53 43° NE 00:08:33 10° NE
Cosmos 1570 Rocket 3.9 00:04:53 75° SW 00:05:20 84° WNW 00:10:38 10° NNE
Cosmos 1709 Rocket 3.8 00:05:05 61° S 00:06:16 89° E 00:12:29 10° N
Cosmos 1763 Rocket 3.9 00:05:57 46° W 00:06:32 48° WNW 00:11:27 10° N
STARLINK-1312 4.4 00:09:13 46° NNE 00:09:13 46° NNE 00:12:02 10° NE
Cosmos 1400 Rocket 4.3 00:05:01 10° NNE 00:08:42 30° ENE 00:09:10 30° E
Cosmos 2227 Rocket 2.8 00:05:07 10° NW 00:10:10 40° W 00:10:10 40° W
Cosmos 2084 Rocket 3.8 00:10:02 10° NNW 00:14:29 64° NE 00:14:58 59° E
SL-16 R/B 3.8 00:10:23 16° ESE 00:14:37 35° ENE 00:20:08 10° N
Cosmos 1758 Rocket 3.6 00:15:28 72° NW 00:15:28 72° NW 00:19:39 10° N
STARLINK-48 4.4 00:19:05 42° ENE 00:19:05 42° ENE 00:21:47 10° NE
IRAS Rocket 4.4 00:18:06 45° SE 00:19:44 68° ENE 00:25:14 10° N
STARLINK-1283 4.1 00:20:03 53° NW 00:20:07 53° NNW 00:24:10 10° NE
STARLINK-80 4.2 00:21:07 49° NNW 00:21:07 49° NNW 00:24:30 10° NE
SL-16 R/B 3.4 00:22:44 27° SE 00:23:55 30° ESE 00:28:46 10° NE
Cosmos 2208 Rocket 4.0 00:23:37 61° WSW 00:24:20 69° WNW 00:29:41 10° NNE
CZ-4 R/B 4.5 00:20:03 10° N 00:24:27 41° WNW 00:24:50 40° W
STARLINK-1297 4.3 00:26:32 44° N 00:26:32 44° N 00:29:36 10° NE
Cosmos 2285 Rocket 3.9 00:24:10 10° NNW 00:30:28 70° WSW 00:31:55 53° SSW
USA 81 4.2 00:30:17 53° WSW 00:30:52 56° W 00:36:05 10° N
USA 215 3.1 00:28:07 22° SE 00:32:34 81° SW 00:39:09 10° NW
Cosmos 1953 Rocket 3.4 00:33:32 88° WSW 00:33:34 88° W 00:37:59 10° N
CZ-2D R/B 2.9 00:28:50 10° NNE 00:33:45 40° E 00:35:02 34° SE
Cosmos-2242 3.1 00:30:29 10° NNW 00:34:23 66° WNW 00:34:23 66° WNW
Meteor 2-10 Rocket 3.9 00:30:22 10° NNW 00:35:12 45° W 00:35:16 45° W
STARLINK-1310 4.4 00:37:57 43° E 00:37:57 43° E 00:41:10 10° ENE
Cosmos 2221 4.4 00:33:47 10° NNE 00:37:27 26° ENE 00:39:27 18° ESE
CZ-4C R/B 4.4 00:38:34 37° ESE 00:39:45 48° ENE 00:44:02 10° N
Cosmos 540 Rocket 3.9 00:41:07 42° W 00:42:01 47° WNW 00:46:59 10° N
STARLINK-1319 4.1 00:42:43 49° E 00:42:43 49° E 00:46:10 10° ENE
GP-B 3.2 00:38:03 10° N 00:42:29 66° E 00:42:59 60° SE
Cosmos 2360 Rocket 4.1 00:43:57 15° SE 00:46:20 19° E 00:50:09 10° ENE
STARLINK-1277 3.9 00:47:31 56° ESE 00:47:31 56° ESE 00:51:10 10° ENE
Helios 1B rocket 4.1 00:46:56 10° NNW 00:50:07 22° WNW 00:50:24 22° WNW
STARLINK-1276 3.7 00:52:19 65° ESE 00:52:19 65° ESE 00:56:11 10° NE
Cosmos 1980 Rocket 2.8 00:51:50 36° WSW 00:53:31 46° WNW 00:58:57 10° NNE
Cosmos 2074 Rocket 4.0 00:51:22 43° S 00:53:37 82° E 00:59:56 10° N
STARLINK-1305 3.5 00:57:04 74° SE 00:57:04 74° SE 01:01:08 10° NE
STARLINK-1306 3.5 00:57:24 79° SSE 00:57:27 79° SE 01:01:40 10° NE
Cosmos 1455 4.2 00:58:28 10° NW 01:00:05 17° WNW 01:00:05 17° WNW
STARLINK-1262 3.4 01:01:53 80° S 01:02:00 81° SE 01:06:10 10° NE
CZ-4B R/B 4.0 00:57:29 10° NNE 01:02:39 54° E 01:04:34 35° SSE
Meteor 1-11 4.3 01:03:54 45° SW 01:05:24 60° WNW 01:10:56 10° N
STARLINK-1300 3.4 01:06:40 76° SW 01:06:59 88° SE 01:11:08 10° NE
Lacrosse 4 Rocket 3.9 01:07:12 10° WNW 01:07:20 10° WNW 01:07:20 10° WNW
ADEOS II 3.3 01:07:01 10° NNE 01:11:48 35° E 01:14:40 20° SSE
STARLINK-1295 3.5 01:11:26 67° WSW 01:11:56 84° NW 01:16:06 10° NE
NOSS 2-1 (C) 2.9 01:12:05 75° NW 01:12:05 75° NW 01:15:29 10° NNE
Cosmos 2263 Rocket 2.1 01:07:03 10° NNW 01:12:41 87° ENE 01:15:58 26° SSE
UNK 3.6 01:11:40 48° S 01:12:57 87° WSW 01:17:34 10° NNW
Timation 1 Rocket 4.3 01:08:20 10° NNW 01:14:12 60° WSW 01:16:19 38° S
STARLINK-64 4.1 01:14:12 39° WNW 01:14:46 43° NNW 01:18:13 10° NE
IRS-1D 4.2 01:10:04 10° NNE 01:15:07 47° E 01:17:31 28° SSE
SL-4 R/B 2.9 01:11:06 10° NW 01:15:53 58° NNE 01:20:29 10° ESE
AQUA 3.9 01:12:03 10° NNE 01:16:49 71° E 01:18:24 41° S
NOSS 2-1 (D) 3.0 01:16:50 65° WNW 01:16:53 65° NW 01:20:22 10° NNE
STARLINK-1287 3.6 01:16:13 59° WSW 01:16:55 78° NW 01:21:04 10° NE
USA 229 DEB 4.0 01:11:01 10° NNW 01:18:23 82° NE 01:26:04 10° SE
USA 229 4.0 01:11:08 10° NNW 01:18:30 81° NE 01:26:10 10° SE
Cosmos 2184 Rocket 4.0 01:16:26 38° SSW 01:18:47 66° W 01:24:57 10° N
NOSS 3-1 (C) 4.1 01:11:36 10° NW 01:19:21 90° ENE 01:28:08 10° SSE
STARLINK-25 4.5 01:20:21 29° ESE 01:20:21 29° ESE 01:23:01 10° ENE
Cosmos 372 Rocket 4.5 01:15:32 10° NW 01:20:17 38° WSW 01:20:47 37° WSW
Cosmos 2327 Rocket 4.5 01:17:40 34° S 01:20:41 89° W 01:27:05 10° N
NPP 3.6 01:15:24 10° NNE 01:20:49 86° WNW 01:22:54 39° SSW
ARIANE 5 R/B 4.2 01:17:25 10° NE 01:21:29 24° E 01:25:02 12° SE
CZ-4C R/B 4.5 01:18:23 10° WNW 01:21:54 17° NNW 01:25:47 10° NNE
Cosmos 1892 3.2 01:21:53 40° SE 01:22:49 51° E 01:26:30 10° NNE
BREEZE-M DEB (TANK) 3.8 01:23:13 21° NNW 01:23:26 21° NNW 01:25:30 10° NE
STARLINK-1299 4.1 01:24:06 38° W 01:25:26 58° NW 01:29:39 10° NE
STARLINK-1302 3.8 01:25:46 44° W 01:26:53 65° NW 01:31:01 10° NE
Cosmos 1610 Rocket 4.4 01:24:10 34° S 01:27:04 85° W 01:33:17 10° N
NOSS 3-1 (A) 4.4 01:19:49 10° NNW 01:27:29 72° NE 01:36:13 10° SE
BREEZE-M DEB (TANK) 4.3 01:27:03 10° NNW 01:28:35 15° N 01:30:13 10° NE
STARLINK-24 4.1 01:28:48 39° SSE 01:29:14 41° SE 01:33:01 10° ENE
STARLINK-1273 3.9 01:30:32 38° W 01:31:51 60° NW 01:35:58 10° NE
Cosmos 1869 3.1 01:28:09 10° N 01:32:02 87° W 01:33:00 49° S
Cosmos 2322 Rocket 2.1 01:29:42 37° SSW 01:32:04 90° W 01:37:44 10° NNE
Cosmos 2150 Rocket 4.4 01:28:08 10° NW 01:32:56 40° WSW 01:33:54 36° SW
In-Cosmos 22 Rocket 4.2 01:31:01 31° S 01:33:49 81° E 01:39:20 10° NNE
STARLINK-1288 4.1 01:35:19 34° W 01:36:51 55° NNW 01:40:56 10° NE
STARLINK-61 3.6 01:35:51 45° WSW 01:36:54 70° NW 01:40:49 10° NE
STARLINK-1014 4.5 01:38:25 32° SSE 01:39:16 35° SE 01:43:02 10° ENE
STARLINK-81 3.7 01:38:56 42° SSE 01:39:21 44° SE 01:42:50 10° ENE
STARLINK-54 3.5 01:40:39 47° SSE 01:41:08 52° SE 01:44:39 10° ENE
Cosmos 1076 Rocket 3.5 01:39:51 37° S 01:41:31 88° ESE 01:45:55 10° N
STARLINK-1308 4.2 01:40:08 29° W 01:41:53 50° NNW 01:45:56 10° NE
STARLINK-77 3.6 01:42:03 44° SSE 01:42:35 48° SE 01:46:06 10° ENE
Resurs 1-4 Rocket 2.6 01:37:35 10° N 01:42:39 46° WNW 01:44:54 29° SW
Cosmos 2151 4.3 01:40:31 16° SSE 01:43:23 36° E 01:47:20 10° NNE
STARLINK-1025 4.4 01:43:11 33° S 01:44:14 39° SE 01:48:06 10° ENE
Cosmos 1125 Rocket 3.7 01:41:37 10° NNW 01:46:38 50° WSW 01:48:54 30° SSW
STARLINK-79 3.5 01:46:45 45° S 01:47:28 54° SE 01:51:01 10° ENE
Cosmos 962 Rocket 4.5 01:44:45 23° S 01:48:46 84° E 01:55:00 10° N
STARLINK-78 3.5 01:48:20 45° S 01:49:06 57° SE 01:52:40 10° ENE
STARLINK-1017 4.2 01:47:56 33° S 01:49:09 43° SE 01:53:06 10° ENE
STARLINK-57 3.3 01:49:58 46° SSW 01:50:48 63° SE 01:54:22 10° ENE
Cosmos 1408 2.8 01:49:31 33° S 01:51:02 69° E 01:54:42 10° NNE
STARLINK-1304 4.5 01:49:41 23° W 01:51:51 44° NNW 01:55:50 10° NE
STARLINK-49 3.4 01:51:26 44° SSW 01:52:19 61° SE 01:55:53 10° ENE
Cosmos 2154 Rocket 4.2 01:49:52 28° SW 01:53:08 56° W 01:59:16 10° N
STARLINK-27 3.3 01:53:02 43° SSW 01:53:59 63° SE 01:57:35 10° ENE
STARLINK-1023 4.1 01:52:43 33° S 01:54:06 48° SE 01:58:06 10° ENE
GEOS 3 Rocket 3.6 01:50:08 10° SE 01:55:19 88° WSW 02:00:37 10° NW
STARLINK-74 3.3 01:54:35 42° SSW 01:55:35 66° SE 01:59:11 10° ENE
STARLINK-39 3.3 01:56:10 42° SSW 01:57:13 69° SE 02:00:50 10° NE
Cosmos 1825 2.8 01:55:27 22° SSE 01:57:37 52° E 02:01:18 10° NNE
Cosmos 2237 4.2 01:54:30 25° SSW 01:57:55 81° ESE 02:03:41 10° NNE
SL-16 R/B 3.1 01:55:28 26° SW 01:58:08 37° W 02:03:49 10° NNW
STARLINK-31 3.2 01:57:45 41° SSW 01:58:52 72° SE 02:02:30 10° NE
STARLINK-1007 3.9 01:57:32 32° SSW 01:59:06 53° SE 02:03:09 10° ENE
SL-08 R/B 3.6 01:55:29 10° SSE 02:00:04 66° ENE 02:04:39 10° N
STARLINK-69 3.1 01:59:20 40° SW 02:00:32 82° SE 02:04:08 10° NE
STARLINK-21 3.2 02:00:55 38° SW 02:02:10 78° SE 02:05:47 10° NE
STARLINK-45 3.2 02:02:35 36° SW 02:03:56 89° SE 02:07:35 10° NE
STARLINK-1048 3.8 02:02:18 31° SSW 02:04:03 59° SE 02:08:08 10° ENE
IRS-P3 4.1 02:00:52 10° NNE 02:06:14 84° WNW 02:09:52 21° SSW
STARLINK-76 3.2 02:05:36 34° SW 02:07:03 87° SE 02:10:41 10° NE
Cosmos 1844 Rocket 3.5 02:01:43 10° NNW 02:07:12 52° ENE 02:12:36 10° SE
STARLINK-70 3.2 02:05:59 33° SW 02:07:30 88° NW 02:11:11 10° NE
SL-16 R/B 3.0 02:04:36 21° WSW 02:07:50 40° WNW 02:13:10 10° N
STARLINK-23 3.2 02:07:11 33° SW 02:08:41 90° ENE 02:12:19 10° NE
STARLINK-1049 3.7 02:07:06 29° SSW 02:09:02 65° SE 02:13:09 10° ENE
STARLINK-32 3.1 02:08:37 32° SW 02:10:08 87° NW 02:13:44 10° NE
STARLINK-40 3.2 02:10:18 31° SW 02:11:56 85° NW 02:15:34 10° NE
COSMOS 2428 4.2 02:07:27 10° SSE 02:12:23 31° ESE 02:17:19 10° NE
STARLINK-44 3.2 02:11:49 30° WSW 02:13:30 82° NW 02:17:09 10° NE
CZ-2D R/B 3.4 02:09:21 10° N 02:13:34 25° WNW 02:16:21 16° WSW
STARLINK-1051 3.6 02:11:51 27° SW 02:13:59 72° SE 02:18:07 10° NE
Cosmos 773 Rocket 4.0 02:11:02 21° SSW 02:14:37 90° SE 02:19:57 10° NNE
Cosmos 2221 3.7 02:11:17 10° NNW 02:14:55 26° W 02:16:17 22° WSW
STARLINK-37 3.3 02:13:33 28° WSW 02:15:20 73° NW 02:18:58 10° NE
USA 215 4.3 02:15:21 20° SW 02:16:10 20° WSW 02:20:46 10° WNW
STARLINK-36 3.3 02:14:56 27° WSW 02:16:45 77° NW 02:20:24 10° NE
STARLINK-60 3.3 02:14:30 10° WNW 02:17:32 41° SW 02:20:33 10° SSE
FALCON 9 DEB 4.4 02:15:35 10° NW 02:18:56 45° NNE 02:22:17 10° ESE
STARLINK-63 3.4 02:18:10 25° WSW 02:20:08 68° NW 02:23:45 10° NE
Cosmos 1315 Rocket 4.2 02:17:42 10° NW 02:20:37 20° W 02:21:25 19° WSW
BREEZE-M DEB (TANK) 3.8 02:22:48 13° SSE 02:22:48 13° SSE 02:23:15 10° SSE
STARLINK-35 3.3 02:19:32 25° WSW 02:21:29 69° NW 02:25:03 10° NE
STARLINK-51 3.4 02:21:14 23° WSW 02:23:18 66° NW 02:26:54 10° NE
Cosmos 2366 rocket 4.1 02:17:32 11° S 02:23:35 83° E 02:29:55 10° N
STARLINK-1028 3.6 02:21:25 23° SW 02:23:55 86° SE 02:28:05 10° NE
STARLINK-30 3.5 02:22:49 22° WSW 02:24:58 64° NW 02:28:35 10° NE
STARLINK-72 3.5 02:24:13 22° WSW 02:26:22 62° NW 02:29:54 10° NE
Shenzhou-11 Module 1.9 02:26:47 14° WNW 02:28:42 58° N 02:31:06 10° E
Cosmos 2058 4.3 02:27:00 18° WSW 02:28:54 24° WNW 02:32:23 10° NNW
STARLINK-1021 3.6 02:26:14 21° SW 02:28:56 87° NW 02:33:05 10° NE
STARLINK-59 3.7 02:27:25 19° WSW 02:29:44 55° NW 02:33:15 10° NE
Cosmos 2360 Rocket 2.4 02:25:44 19° SW 02:29:46 59° WNW 02:35:22 10° NNE
STARLINK-1010 3.7 02:28:17 20° SW 02:31:11 80° NW 02:35:27 10° NE
STARLINK-56 3.7 02:29:04 19° WSW 02:31:29 56° NW 02:35:04 10° NE
Cosmos 1933 4.4 02:28:22 10° N 02:32:16 46° E 02:36:08 10° SSE
STARLINK-73 3.7 02:30:38 18° WSW 02:33:07 54° NW 02:36:41 10° NE
STARLINK-1019 3.6 02:30:59 19° SW 02:33:52 80° NW 02:38:02 10° NE
STARLINK-38 3.8 02:32:12 17° WSW 02:34:45 52° NW 02:38:19 10° NE
Cosmos 1328 Rocket 4.1 02:31:30 10° N 02:35:51 59° E 02:40:07 10° SSE
STARLINK-65 3.8 02:33:46 17° WSW 02:36:23 51° NW 02:39:57 10° NE
STARLINK-68 4.0 02:34:23 16° WSW 02:37:05 47° NNW 02:40:39 10° NE
STARLINK-53 3.9 02:35:24 16° WSW 02:38:07 47° NNW 02:41:39 10° NE
STARLINK-1012 3.7 02:35:47 17° WSW 02:38:53 73° NW 02:43:02 10° NE
BREEZE-M DEB (TANK) 4.1 02:35:22 14° SSW 02:39:25 33° SSE 02:42:17 10° E
STARLINK-50 3.9 02:37:26 15° WSW 02:40:22 52° NW 02:44:07 10° NE
Cosmos 2333 Rocket 2.5 02:37:39 10° SSW 02:43:14 68° ESE 02:48:52 10° NNE
SL-24 DEB 4.4 02:39:02 10° N 02:43:32 56° W 02:47:53 11° SSW
Meteor 1-28 Rocket 3.3 02:40:57 10° S 02:44:37 53° W 02:48:18 10° NNW
STARLINK-71 4.2 02:41:45 13° WSW 02:45:09 48° NNW 02:49:04 10° NE
Landsat 5 3.9 02:41:22 10° SSE 02:45:52 75° ENE 02:50:19 10° N
Cosmos 2219 Rocket 2.4 02:41:49 10° SSW 02:47:21 69° ESE 02:52:54 10° NNE
Cosmos 2322 3.8 02:43:30 12° SSW 02:48:44 77° WNW 02:54:30 10° NNE
STARLINK-1026 3.9 02:45:20 14° WSW 02:48:50 62° NW 02:52:57 10° NE
STARLINK-29 3.2 02:47:19 10° WNW 02:50:22 43° SW 02:53:23 10° SSE
Cosmos 1727 Rocket 4.0 02:44:57 10° N 02:51:09 88° E 02:57:20 10° S
ADEOS II 3.2 02:46:52 10° N 02:51:22 30° WNW 02:55:36 11° SW
STARLINK-1013 4.0 02:50:08 12° WSW 02:53:50 57° NW 02:57:56 10° NE
ERS-2 2.4 02:50:42 10° S 02:54:13 47° W 02:57:47 10° NNW
IDEFIX/ARIANE 42P 2.6 02:49:54 10° NNE 02:55:11 83° WNW 03:00:25 10° SSW
SL-4 R/B 3.1 02:51:18 10° WNW 02:55:23 29° SW 02:59:18 10° SSE
Cosmos 2263 Rocket 4.0 02:53:53 10° WNW 02:55:43 12° W 02:57:33 10° WSW
Cosmos 1606 2.6 02:52:37 10° NNW 02:56:23 66° W 03:00:08 10° S
STARLINK-25 4.4 02:53:44 10° W 02:56:55 34° NNW 03:00:07 10° NE
ATLAS 5 CENTAUR R/B 2.9 02:54:12 10° S 02:57:49 32° ESE 03:01:43 10° NE
Cosmos 2333 4.3 02:52:48 11° SSW 02:58:11 68° WNW 03:03:48 10° NNE
STARLINK-1009 4.1 02:54:54 11° WSW 02:58:49 52° NNW 03:02:53 10° NE
BREEZE-M R/B 3.7 02:57:38 10° NW 03:00:26 33° NNE 03:02:41 10° E
ARIANE 5 R/B 3.2 02:56:04 10° N 03:00:39 38° WNW 03:05:14 10° SW
Cosmos 1500 Rocket 4.5 02:57:14 10° SSE 03:01:32 51° E 03:05:53 10° NNE
STARLINK-1015 4.3 02:59:47 10° WSW 03:03:48 48° NNW 03:07:51 10° NE
STARLINK-1320 3.4 03:01:39 10° NW 03:04:45 62° NE 03:07:50 10° ESE
STARLINK-1322 3.4 03:02:00 10° NW 03:05:07 63° NE 03:08:12 10° ESE
Cosmos 1408 Rocket 3.5 03:01:03 10° SSW 03:05:20 67° W 03:09:38 10° N
CZ-2C R/B 2.8 03:01:38 10° N 03:05:22 61° WNW 03:09:10 10° SSW
STARLINK-1324 3.4 03:02:19 10° NW 03:05:25 63° NE 03:08:31 10° ESE
STARLINK-1294 3.4 03:02:37 10° NW 03:05:44 64° NE 03:08:52 10° ESE
CZ-2D R/B 4.2 03:01:45 10° N 03:05:46 41° WNW 03:09:52 10° SW
STARLINK-1261 3.4 03:03:01 10° NW 03:06:07 64° NE 03:09:12 10° ESE
STARLINK-1033 4.5 03:02:14 10° SSW 03:06:08 42° SE 03:10:04 10° ENE
STARLINK-1325 3.4 03:03:21 10° NW 03:06:28 65° NE 03:09:33 10° ESE
STARLINK-1333 3.3 03:03:43 10° NW 03:06:50 65° NE 03:09:55 10° ESE
STARLINK-1334 3.3 03:04:01 10° NW 03:07:07 66° NE 03:10:12 10° ESE
STARLINK-1326 3.3 03:04:20 10° NW 03:07:26 66° NE 03:10:32 10° ESE
STARLINK-1323 3.3 03:04:43 10° NW 03:07:49 67° NE 03:10:55 10° ESE
STARLINK-1349 3.3 03:05:01 10° NW 03:08:07 67° NE 03:11:13 10° ESE
STARLINK-1336 3.3 03:05:20 10° NW 03:08:27 68° NE 03:11:33 10° ESE
STARLINK-1016 4.4 03:04:49 10° WSW 03:08:48 45° NNW 03:12:48 10° NE
STARLINK-1331 3.2 03:05:43 10° NW 03:08:49 68° NE 03:11:55 10° ESE
STARLINK-1344 3.2 03:06:01 10° NW 03:09:08 69° NE 03:12:13 10° ESE
STARLINK-1343 3.2 03:06:24 10° NW 03:09:30 70° NE 03:12:36 10° ESE
STARLINK-1346 3.2 03:06:40 10° NW 03:09:49 70° NE 03:12:57 10° ESE
STARLINK-1328 3.2 03:07:07 10° NW 03:10:14 71° NE 03:13:20 10° ESE
STARLINK-1354 3.2 03:07:24 10° NW 03:10:31 71° NE 03:13:37 10° ESE
STARLINK-1347 3.2 03:07:41 10° NW 03:10:48 72° NE 03:13:54 10° ESE
Cosmos 1844 3.8 03:05:13 10° NNW 03:10:56 60° WSW 03:16:35 10° S
STARLINK-1031 4.3 03:07:09 10° SSW 03:11:07 46° SE 03:15:06 10° ENE
STARLINK-1357 3.1 03:08:08 10° NW 03:11:14 72° NE 03:14:20 10° ESE
STARLINK-1335 3.1 03:08:24 10° NW 03:11:31 73° NE 03:14:37 10° ESE
STARLINK-1327 3.1 03:08:45 10° NW 03:11:52 74° NE 03:14:58 10° ESE
STARLINK-1340 3.1 03:09:03 10° NW 03:12:10 74° NE 03:15:16 10° ESE
STARLINK-1356 3.1 03:09:26 10° NW 03:12:33 75° NE 03:15:40 10° SE
STARLINK-1390 4.4 03:08:39 10° NW 03:12:39 56° NE 03:16:38 10° ESE
STARLINK-1345 3.1 03:09:44 10° NW 03:12:51 75° NE 03:15:57 10° SE
STARLINK-1355 3.1 03:10:06 10° NW 03:13:13 76° NE 03:16:19 10° SE
STARLINK-1321 3.1 03:10:27 10° NW 03:13:34 77° NE 03:16:40 10° SE
STARLINK-1358 3.0 03:10:50 10° NW 03:13:57 77° NE 03:17:03 10° SE
STARLINK-1332 3.0 03:11:07 10° NW 03:14:15 78° NE 03:17:21 10° SE
Cosmos 1680 Rocket 3.9 03:09:20 10° S 03:14:31 67° ESE 03:19:48 10° NNE
STARLINK-1348 3.0 03:11:27 10° NW 03:14:35 79° NE 03:17:41 10° SE
STARLINK-1330 3.0 03:11:47 10° NW 03:14:54 79° NE 03:18:01 10° SE
STARLINK-1363 3.0 03:12:07 10° NW 03:15:14 80° NE 03:18:21 10° SE
STARLINK-1337 3.0 03:12:29 10° NW 03:15:37 81° NE 03:18:44 10° SE
Cosmos 1633 2.7 03:12:05 10° S 03:15:39 76° E 03:19:16 10° N
STARLINK-1342 3.0 03:12:48 10° NW 03:15:56 81° NE 03:19:03 10° SE
CZ-4B R/B 2.4 03:13:03 10° SSE 03:16:01 47° ENE 03:19:03 10° N
STARLINK-1024 4.2 03:12:03 10° SSW 03:16:03 51° SE 03:20:05 10° ENE
SAR-Lupe-1 4.4 03:12:40 10° SSE 03:16:11 69° ENE 03:19:45 10° N
STARLINK-1364 3.0 03:13:09 10° NW 03:16:16 82° NE 03:19:22 10° SE
STARLINK-1376 2.9 03:13:28 10° NW 03:16:36 82° NE 03:19:43 10° SE
Cosmos 2322 Rocket 4.2 03:13:44 10° W 03:16:56 15° NW 03:20:08 10° NNW
STARLINK-1360 2.9 03:13:49 10° NW 03:16:57 83° NE 03:20:04 10° SE
Meteor 2-3 Rocket 3.8 03:11:39 10° SSW 03:17:13 69° W 03:22:48 10° N
STARLINK-1361 2.9 03:14:10 10° NW 03:17:17 84° NE 03:20:24 10° SE
STARLINK-1367 2.9 03:14:26 10° NW 03:17:36 85° NE 03:20:45 10° SE
STARLINK-1366 2.9 03:14:48 10° NW 03:17:56 85° NE 03:21:02 10° SE
STARLINK-1365 4.1 03:14:37 10° NW 03:18:40 64° NE 03:22:42 10° ESE
Cosmos 1151 Rocket 3.5 03:14:41 10° NNW 03:18:50 42° W 03:22:57 10° SSW
Cosmos 2344 3.8 03:11:58 10° SSW 03:19:32 75° ESE 03:27:20 10° NE
Cosmos 1461 3.5 03:15:56 10° NNW 03:20:39 75° ENE 03:25:22 10° SE
Cosmos 923 Rocket 4.0 03:15:42 10° SSW 03:20:54 82° WNW 03:26:09 10° NNE
STARLINK-1035 4.1 03:16:59 10° SW 03:21:02 56° SE 03:25:06 10° ENE
